Home   Weather   Longyearbyen   Past weeks

Flag for Norway Past Weather in Longyearbyen, Svalbard, Norway — Yesterday and Last 2 Weeks

Now
39 °F

Light rain. Broken clouds.


Feels Like: 37 °F
Forecast: 31 / 39 °F
Wind: 3 mph from North

Location: Svalbard Lufthavn

Current Time: Aug 30, 2016 at 9:10:05 PM

Latest Report: Aug 30, 2016 at 7:50 PM


Visibility: N/A

Pressure: 29.33 "Hg

Humidity: 75%

Dew Point: 32 °F

Location of LongyearbyenLocation

Past Weather in Longyearbyen — Graph

°F

Longyearbyen Temperature Yesterday

Maximum temperature yesterday: 41 °F (at 4:20 PM)
Minimum temperature yesterday: 36 °F (at 5:50 AM)
Average temperature yesterday: 38 °F

High & Low Weather Summary for the Past Weeks

 TemperatureHumidityPressure
High52 °F (Aug 19, 1:50 AM)93% (Aug 16, 11:50 AM)30.15 "Hg (Aug 16, 11:50 AM)
Low34 °F (Aug 24, 12:50 AM)45% (Aug 23, 2:20 PM)28.94 "Hg (Aug 29, 5:50 AM)
Average42 °F75%29.72 "Hg
* Reported Aug 15 7:50 PM — Aug 30 7:50 PM, Longyearbyen, Weather by CustomWeather, © 2016

Note: Actual official high and low records may vary slightly from our data, if they occured in-between our weather recording intervals... More about our weather records

Advertising

Longyearbyen Weather History for the Previous 24 Hours

Scroll right to see more
 ConditionsComfort  
Time TempWeatherWind HumidityBarometerVisibility
7:50 PM
Tue, Aug 30
39 °FLight rain. Broken clouds.3 mph75%29.33 "HgN/A
6:50 PM39 °FPartly sunny.2 mph75%29.36 "HgN/A
6:20 PM39 °FPartly sunny.1 mph70%29.36 "HgN/A
5:50 PM39 °FPartly sunny.3 mph65%29.36 "HgN/A
4:50 PM39 °FPartly sunny.3 mph65%29.36 "HgN/A
4:20 PM39 °FBroken clouds.2 mph70%29.39 "HgN/A
3:50 PM39 °FScattered showers. Broken clouds.5 mph70%29.39 "HgN/A
3:20 PM39 °FBroken clouds.5 mph75%29.39 "HgN/A
2:50 PM39 °FLight rain. Broken clouds.5 mph75%29.39 "HgN/A
2:20 PM39 °FBroken clouds.5 mph75%29.39 "HgN/A
1:50 PM39 °FBroken clouds.5 mph70%29.39 "HgN/A
1:20 PM39 °FBroken clouds.8 mph75%29.39 "HgN/A
12:50 PM39 °FPartly sunny.7 mph70%29.39 "HgN/A
12:20 PM39 °FScattered clouds.6 mph75%29.39 "HgN/A
11:50 AM39 °FScattered clouds.6 mph75%29.39 "HgN/A
11:20 AM39 °FPartly sunny.2 mph70%29.39 "HgN/A
10:50 AM37 °FPartly sunny.7 mph75%29.39 "HgN/A
10:20 AM37 °FPartly sunny.6 mph75%29.36 "HgN/A
9:50 AM37 °FScattered clouds.6 mph75%29.36 "HgN/A
9:20 AM37 °FScattered clouds.8 mph75%29.36 "HgN/A
8:50 AM37 °FScattered clouds.8 mph75%29.36 "HgN/A
8:20 AM37 °FScattered clouds.5 mph81%29.36 "HgN/A
7:50 AM36 °FBroken clouds.6 mph87%29.36 "HgN/A
7:20 AM36 °FScattered clouds.2 mph87%29.33 "HgN/A
6:50 AM36 °FScattered clouds.3 mph87%29.33 "HgN/A
5:50 AM34 °FScattered clouds.3 mph81%29.33 "HgN/A
4:50 AM36 °FScattered clouds.10 mph81%29.30 "HgN/A
3:50 AM37 °FPassing clouds.9 mph75%29.30 "HgN/A
2:50 AM37 °FPassing clouds.9 mph75%29.27 "HgN/A
1:50 AM37 °FPartly cloudy.7 mph75%29.24 "HgN/A
12:50 AM37 °FPartly cloudy.7 mph75%29.24 "HgN/A
12:20 AM37 °FPassing clouds.6 mph75%29.21 "HgN/A
11:50 PM
Mon, Aug 29
37 °FPassing clouds.5 mph75%29.21 "HgN/A
11:20 PM39 °FPartly sunny.9 mph70%29.21 "HgN/A
10:50 PM39 °FPartly sunny.8 mph70%29.18 "HgN/A
9:50 PM39 °FPartly sunny.13 mph75%29.15 "HgN/A
Weather by CustomWeather, © 2016

See weather overviewHow to use our weather pages